This demonstration page uses our WeatherBlox Daily Observations layout. Learn more.

Left ArrowRight Arrow

Hourly Observations for December 10, 2022

Temp ( °F °C ) Dew Point ( °F °C ) Humidity (%) Winds ( mph kmh ) Pressure ( in mb ) Visibility ( mi km ) Precip ( " mm )
12:55 am 00:55 Cloudy with Mist and Fog 33 0.5 32 -0.2 95 95 SSE 6 9 30.19 1022 3 5 0.00 0.00
1:55 am 01:55 Cloudy with Mist and Fog 33 0.6 32 0 96 96 S 3 6 30.19 1022 3 5 0.00 0.00
2:55 am 02:55 Cloudy with Mist and Fog 33 0.8 32 0.1 95 95 S 8 13 30.19 1022 3 5 0.00 0.00
3:55 am 03:55 Cloudy with Mist and Fog 33 0.8 32 0.1 95 95 S 7 11 30.19 1022 3 5 0.00 0.00
4:55 am 04:55 Cloudy with Mist and Fog 34 0.9 33 0.3 96 96 S 10 17 30.18 1022 3 5 0.00 0.00
5:55 am 05:55 Cloudy with Mist and Fog 33 0.4 31 -0.3 95 95 S 10 17 30.18 1022 3 5 0.00 0.00
7:11 am 07:11 Cloudy 32 0 32 0 100 100 SSW 7 11 30.18 1022 8 13 0.00 0.00
7:55 am 07:55 Cloudy with Mist and Fog 32 0.2 32 0.1 99 99 SSW 7 11 30.19 1023 5 8 0.00 0.00
8:55 am 08:55 Cloudy with Mist and Fog 33 0.3 32 0.2 99 99 WSW 10 17 30.21 1023 6 10 0.00 0.00
9:10 am 09:10 Cloudy with Mist and Fog 32 0 32 0 100 100 WSW 8 13 30.21 1023 6 10 0.00 0.00
9:25 am 09:25 Cloudy 32 0 32 0 100 100 WSW 8 13 30.22 1024 8 13 0.00 0.00
9:40 am 09:40 Cloudy 34 1 32 0 93 93 WSW 8 13 30.22 1024 7 11 0.00 0.00
9:55 am 09:55 Cloudy 33 0.6 32 0.2 97 97 WSW 5 7 30.22 1024 8 13 0.00 0.00
10:25 am 10:25 Cloudy 34 1 32 0 93 93 W 7 11 30.22 1024 10 16 0.00 0.00
10:40 am 10:40 Cloudy 34 1 30 -1 86 86 WSW 7 11 30.22 1024 10 16 0.00 0.00
10:55 am 10:55 Cloudy 35 1.5 30 -0.9 84 84 WSW 9 15 30.22 1023 10 16 0.00 0.00
11:40 am 11:40 Cloudy 36 2 30 -1 80 80 W 6 9 30.21 1023 10 16 0.00 0.00
11:55 am 11:55 Cloudy 36 2.3 30 -1.1 78 78 W 10 17 30.21 1023 10 16 0.00 0.00
12:40 pm 12:40 Mostly Cloudy 39 4 30 -1 70 70 W 8 13 30.20 1023 10 16 0.00 0.00
12:55 pm 12:55 Partly Cloudy 40 4.2 30 -1 69 69 WNW 10 17 30.20 1023 10 16 0.00 0.00
1:55 pm 13:55 Sunny 42 5.5 31 -0.8 64 64 NW 7 11 30.19 1022 10 16 0.00 0.00
2:55 pm 14:55 Sunny 44 6.7 29 -1.7 55 55 WNW 7 11 30.20 1023 10 16 0.00 0.00
3:55 pm 15:55 Sunny 44 6.8 26 -3.5 48 48 NW 9 15 30.20 1023 10 16 0.00 0.00
4:55 pm 16:55 Sunny 39 3.9 27 -2.7 62 62 NW 7 11 30.21 1023 10 16 0.00 0.00
5:55 pm 17:55 Clear 35 1.6 25 -4.1 66 66 Calm 30.23 1024 10 16 0.00 0.00
6:55 pm 18:55 Clear 37 2.6 24 -4.2 61 61 NNE 3 6 30.21 1023 10 16 0.00 0.00
7:55 pm 19:55 Clear 33 0.7 25 -4.1 70 70 NNW 3 6 30.24 1024 10 16 0.00 0.00
8:55 pm 20:55 Clear 31 -0.8 24 -4.5 76 76 Calm 30.26 1025 10 16 0.00 0.00
9:55 pm 21:55 Clear 28 -2.2 23 -4.9 82 82 Calm 30.26 1025 10 16 0.00 0.00
10:55 pm 22:55 Clear 28 -2.5 24 -4.7 85 85 Calm 30.28 1025 10 16 0.00 0.00
11:55 pm 23:55 Clear 26 -3.5 22 -5.4 87 87 WNW 3 6 30.30 1026 10 16 0.00 0.00

Powered by AerisWeather